Location: Benque
(43.2594°N, 0.9178°E)
Time: 15:38:11
(UTC+00:00)

CSL-04 Debris - Pass Details

Date: 24 January 2020
Orbit: 828 x 848 km, 99.0° (Epoch: 23 February)

Event Time Altitude Azimuth Distance (km) Brightness Sun altitude
Rises 18:20:19 0° 159° (SSE) 3,353 7.2 -15.1°
Reaches altitude 10° 18:22:39 10° 158° (SSE) 2,425 6.5 -15.6°
Maximum altitude 18:28:01 77° 73° (ENE) 856 4.1 -16.5°
Drops below altitude 10° 18:33:26 10° 349° (N) 2,448 6.6 -17.5°
Sets 18:35:48 0° 348° (NNW) 3,388 7.4 -17.9°
